Location: Cedar Brake
(32.2526°N, 97.8459°W)
Time: 09:07:17
(UTC+00:00)

Cosmos 1934 Rocket - Pass Details

Date: 22 April 2026
Orbit: 936 x 999 km, 83.0° (Epoch: 15 May)

Event Time Altitude Azimuth Distance (km) Brightness Sun altitude
Exits shadow 03:30:37 53° 200° (SSW) 1,185 4.2 -28.3°
Maximum altitude 03:32:11 80° 276° (W) 999 4.0 -28.5°
Drops below altitude 10° 03:38:25 10° 3° (N) 2,714 6.7 -29.5°
Sets 03:40:55 0° 5° (N) 3,654 7.5 -29.9°
